Flag for U.S.A. Weather past 2 weeks in Lawrence, Kansas, U.S.A.

Now
78 °F

Sunny.


Feels Like: 80 °F
Forecast: 68 / 87 °F
Wind: 7 mph from South

Location: Lawrence Municipal Airport

Current Time: Aug 31, 2015 at 10:56:49 AM

Latest Report: Aug 31, 2015 at 9:52 AM


Visibility: 7 mi

Pressure: 29.97 "Hg

Humidity: 79%

Dew point: 71 °F

Location of LawrenceLocation

Historic Weather in Lawrence — Graph

°F

Lawrence temperature yesterday

Maximum temperature yesterday: 84 °F (at 2:52 PM)
Minimum temperature yesterday: 62 °F (at 2:52 AM)
Average temperature yesterday: 72 °F

Past Weeks' High & Low Weather Summary

 TemperatureHumidityPressure
High90 °F (Aug 16, 2:52 PM)100% (Aug 31, 4:59 AM)30.21 "Hg (Aug 31, 4:59 AM)
Low48 °F (Aug 24, 4:52 AM)37% (Aug 20, 2:52 PM)29.64 "Hg (Aug 18, 4:52 PM)
Average70 °F76%29.98 "Hg
* Reported Aug 16 9:52 AM — Aug 31 9:52 AM, Lawrence, Weather by CustomWeather, © 2015

Note: Actual official high and low records may vary slightly from our data, if they occured in-between our weather recording intervals... More about our weather records

Advertising

Lawrence weather history for previous 24 hours

 ConditionsComfort  
Time TempWeatherWind HumidityBarometerVisibility
9:52 AM
Mon, Aug 31
78 °FSunny.7 mph79%29.97 "Hg7 mi
8:52 AM73 °FFog.5 mph90%29.97 "Hg3 mi
8:01 AM68 °FFog.No wind96%29.98 "Hg1 mi
7:01 AM65 °FFog.3 mph97%29.97 "Hg1 mi
6:01 AM64 °FFog.No wind97%29.96 "Hg3 mi
4:59 AM63 °FFog.No wind100%29.96 "Hg2 mi
3:52 AM65 °FFog.No wind94%29.93 "Hg3 mi
2:52 AM66 °FFog.3 mph96%29.93 "Hg4 mi
2:01 AM66 °FFog.No wind96%29.96 "Hg2 mi
12:52 AM68 °FFog.No wind93%29.94 "Hg6 mi
11:52 PM
Sun, Aug 30
67 °FFog.3 mph93%29.95 "Hg6 mi
10:52 PM68 °FFog.No wind93%29.95 "Hg5 mi
9:52 PM69 °FClear.No wind90%29.96 "Hg7 mi
8:52 PM70 °FSunny.3 mph93%29.94 "Hg7 mi
7:52 PM76 °FSunny.3 mph80%29.93 "Hg9 mi
6:52 PM82 °FSunny.6 mph60%29.93 "Hg10 mi
5:52 PM84 °FBroken clouds.8 mph61%29.93 "Hg10 mi
4:52 PM84 °FPassing clouds.5 mph59%29.95 "Hg10 mi
3:52 PM84 °FScattered clouds.6 mph59%29.97 "Hg9 mi
2:52 PM84 °FPassing clouds.5 mph59%29.98 "Hg10 mi
1:52 PM83 °FScattered clouds.3 mph63%30.00 "Hg9 mi
12:52 PM78 °FPartly sunny.5 mph74%30.02 "Hg7 mi
12:00 PM75 °FLow clouds.3 mph79%30.07 "Hg5 mi
10:52 AM71 °FFog.No wind90%30.06 "Hg3 mi
Weather by CustomWeather, © 2015

See weather overviewHow to use our weather pages